Tracking 32420 objects as of 8-Dec-2025
HD Live streaming from Space Station
objects crossing your sky now

SSC

Track SSC now!
10-day predictions
SSC is classified as:


NORAD ID: 13874
Int'l Code: 1983-008H
Perigee: 438.2 km
Apogee: 1,506.5 km
Inclination: 63.3 °
Period: 104.4 minutes
Semi major axis: 7343 km
RCS: Unknown
Launch date: February 9, 1983
Source: United States (US)
Launch site: AIR FORCE WESTERN TEST RANGE (AFWTR)
Your satellite tracking list
Your tracking list is empty




NASA's NSSDC Master Catalog

Two Line Element Set (TLE):
1 13874U 83008H   25342.63168718  .00006628  00000-0  78754-3 0  9994
2 13874  63.3021 168.9953 0727386 133.2251 233.1937 13.79624675325346
Source of the keplerian elements: McCants